WetterOnline ( https://www.wetteronline.de )

Wetter aktuell Lenzen

Aktuelles Wetter: Schwerin (68m)

6-stündlich | Neueste Meldungen
Ortszeit Temperatur Wetter
Di, 02.06. 14:00 24.3° C leicht bewölkt
Di, 02.06. 8:00 16.5° C wolkenlos
Di, 02.06. 2:00 11.8° C wolkenlos
Mo, 01.06. 20:00 21.3° C wolkenlos
Mo, 01.06. 14:00 22.2° C wolkenlos
Mo, 01.06. 8:00 13.7° C wolkenlos
Mo, 01.06. 2:00 11.6° C wolkenlos
So, 31.05. 20:00 17.6° C wolkenlos
Ortszeit Temperatur Wetter
Di, 02.06. 14:00 24.3° C leicht bewölkt
Di, 02.06. 13:50 24.3° C leicht bewölkt
Di, 02.06. 13:40 24.9° C leicht bewölkt
Di, 02.06. 13:30 23.8° C leicht bewölkt
Di, 02.06. 13:20 23.8° C leicht bewölkt
Di, 02.06. 13:10 24.0° C leicht bewölkt
Di, 02.06. 13:00 23.8° C leicht bewölkt
Di, 02.06. 12:30 23.7° C fast wolkenlos
Di, 02.06. 12:00 23.0° C fast wolkenlos
Di, 02.06. 11:30 22.6° C wolkenlos
Di, 02.06. 11:00 22.3° C fast wolkenlos
Ortszeit Relative Feuchte Sichtweite
Di, 02.06. 14:00 32% 60 km
Di, 02.06. 8:00 52% >70 km
Di, 02.06. 2:00 83% >70 km
Mo, 01.06. 20:00 38% >70 km
Mo, 01.06. 14:00 33% 55 km
Mo, 01.06. 8:00 63% >70 km
Mo, 01.06. 2:00 61% 65 km
So, 31.05. 20:00 38% 55 km
Ortszeit Relative Feuchte Sichtweite
Di, 02.06. 14:00 32% 60 km
Di, 02.06. 13:50 32% -
Di, 02.06. 13:40 32% -
Di, 02.06. 13:30 31% 60 km
Di, 02.06. 13:20 31% -
Di, 02.06. 13:10 33% -
Di, 02.06. 13:00 32% 60 km
Di, 02.06. 12:30 35% 60 km
Di, 02.06. 12:00 36% 45 km
Di, 02.06. 11:30 40% 60 km
Di, 02.06. 11:00 38% 55 km
Ortszeit Niederschlagsmenge Niederschlagsart
Di, 02.06. 14:00 0.0 l/m2 in 6 Std. -
Di, 02.06. 8:00 0.0 l/m2 in 12 Std. -
Di, 02.06. 2:00 0.0 l/m2 in 6 Std. -
Mo, 01.06. 20:00 0.0 l/m2 in 12 Std. -
Mo, 01.06. 14:00 0.0 l/m2 in 6 Std. -
Mo, 01.06. 8:00 0.0 l/m2 in 12 Std. -
Mo, 01.06. 2:00 0.0 l/m2 in 6 Std. -
So, 31.05. 20:00 0.0 l/m2 in 12 Std. -
Ortszeit Niederschlagsmenge Niederschlagsart
Di, 02.06. 14:00 0.0 l/m2 in 1 Std. -
Di, 02.06. 13:50 keine Meldung -
Di, 02.06. 13:40 keine Meldung -
Di, 02.06. 13:30 0.0 l/m2 in 1 Std. -
Di, 02.06. 13:20 keine Meldung -
Di, 02.06. 13:10 keine Meldung -
Di, 02.06. 13:00 0.0 l/m2 in 1 Std. -
Di, 02.06. 12:30 0.0 l/m2 in 1 Std. -
Di, 02.06. 12:00 0.0 l/m2 in 1 Std. -
Di, 02.06. 11:30 0.0 l/m2 in 1 Std. -
Di, 02.06. 11:00 0.0 l/m2 in 1 Std. -
Ortszeit Stärke Spitze Richtung
km/h Bft. km/h Grad Sektor
Di, 02.06. 14:00 11 2 25 340° N
Di, 02.06. 8:00 7 2 13 340° N
Di, 02.06. 2:00 2 1 26 360° N
Mo, 01.06. 20:00 9 2 35 80° O
Mo, 01.06. 14:00 18 3 36 60° NO
Mo, 01.06. 8:00 13 3 30 70° O
Mo, 01.06. 2:00 17 3 46 60° NO
So, 31.05. 20:00 18 3 47 80° O
Ortszeit Stärke Spitze Richtung
km/h Bft. km/h Grad Sektor
Di, 02.06. 14:00 11 2 22 340° N
Di, 02.06. 13:50 11 2 - 340° N
Di, 02.06. 13:40 11 2 - 10° N
Di, 02.06. 13:30 11 2 22 10° N
Di, 02.06. 13:20 11 2 - 10° N
Di, 02.06. 13:10 15 3 - 20° N
Di, 02.06. 13:00 7 2 22 20° N
Di, 02.06. 12:30 11 2 22 30° NO
Di, 02.06. 12:00 9 2 24 350° N
Di, 02.06. 11:30 11 2 22 320° NW
Di, 02.06. 11:00 9 2 19 10° N
Ortszeit Untergrenze Bedeckung Gattung
total tief tief mittel hoch
Di, 02.06. 14:00 10500 m 3/8 0/8 - - -
Di, 02.06. 8:00 - 0/8 0/8 - - -
Di, 02.06. 2:00 - 0/8 0/8 - - -
Mo, 01.06. 20:00 - 0/8 0/8 - - -
Mo, 01.06. 14:00 - 0/8 0/8 - - -
Mo, 01.06. 8:00 - 0/8 0/8 - - -
Mo, 01.06. 2:00 - 0/8 0/8 - - -
So, 31.05. 20:00 - 0/8 0/8 - - -
Ortszeit Bedeckungsgrad in Achtel und Wolkenuntergrenze
Di, 02.06. 14:00 3(10500m)
Di, 02.06. 13:50 3(10500m)
Di, 02.06. 13:40 5(10500m)
Di, 02.06. 13:30 3(10500m)
Di, 02.06. 13:20 3(10500m)
Di, 02.06. 13:10 4(10500m)
Di, 02.06. 13:00 6(10500m)
Di, 02.06. 12:30 2(10500m)
Di, 02.06. 12:00 1(10500m)
Di, 02.06. 11:30 keine Wolken
Di, 02.06. 11:00 2(10500m)
Ortszeit Luftdruck NN (hPa) Tendenz (hPa in 3 Std.)
Di, 02.06. 14:00 1018 - 2,1
Di, 02.06. 8:00 1022 - 0,8
Di, 02.06. 2:00 1024 - 0,3
Mo, 01.06. 20:00 1024 - 0,5
Mo, 01.06. 14:00 1026 - 0,7
Mo, 01.06. 8:00 1026 + 0,4
Mo, 01.06. 2:00 1026 + 0,1
So, 31.05. 20:00 1025 + 1,1
Ortszeit Luftdruck NN (hPa) Tendenz (hPa in 3 Std.)
Di, 02.06. 14:00 1018 - 2,1
Di, 02.06. 13:50 1018 keine Meldung
Di, 02.06. 13:40 1018 keine Meldung
Di, 02.06. 13:30 1018 - 1,9
Di, 02.06. 13:20 1018 keine Meldung
Di, 02.06. 13:10 1019 keine Meldung
Di, 02.06. 13:00 1019 - 1,7
Di, 02.06. 12:30 1019 - 1,6
Di, 02.06. 12:00 1020 - 1,5
Di, 02.06. 11:30 1020 - 1,5
Di, 02.06. 11:00 1020 - 1,3
Ortszeit Schneehöhe (cm)
Di, 02.06. 14:00 -
Di, 02.06. 8:00 -
Di, 02.06. 2:00 -
Mo, 01.06. 20:00 -
Mo, 01.06. 14:00 -
Mo, 01.06. 8:00 -
Mo, 01.06. 2:00 -
So, 31.05. 20:00 -
Ortszeit Schneehöhe (cm)
Di, 02.06. 14:00 -
Di, 02.06. 13:50 -
Di, 02.06. 13:40 -
Di, 02.06. 13:30 -
Di, 02.06. 13:20 -
Di, 02.06. 13:10 -
Di, 02.06. 13:00 -
Di, 02.06. 12:30 -
Di, 02.06. 12:00 -
Di, 02.06. 11:30 -
Di, 02.06. 11:00 -
Link zu dieser Seite / Seite empfehlen

Das Wetter in ...